Etusivu
METAR-TAF:

METAR-TAF

Lentoasemat :

South Wood County Airport (Alexander Field)

Wisconsin Rapids, Wisconsin, Yhdysvallat

Leveyspiiri: 44-21-33N, Pituuspiiri: 089-50-13W, korkeus merenpinnasta: 311 m

Tämänhetkinen sää

Tämä raportti tehtiin 34 minuuttia sitten, kello 17.54 UTC
Tuuli 4 kn lännestä/lounaasta
Lämpötila -9°C
Kosteus 44%
Ilmanpaine 1030 hPa
Näkyvyys: 16.1 km
selkeää

METAR: KISW 121754Z AUTO 25004KT 10SM CLR M09/M19 A3043 RMK AO2 SLP329 T10941189 11094 21161 58018

Aika: 12:28 (18:28 UTC)


TAF: puuttuu

Säähavainnot ja -ennusteet yli 4000 lentoasemalta (METAR- ja TAF-raportit).

Käytössä olevat sääasemat on merkitty karttaan keltaisilla ja punaisilla pisteillä.

Aseta hiiri pisteen päälle nähdäksesi sääaseman nimen.

Klikkaa sitten nähdäksesi säähavainnot ja -ennusteet.

Kartan vaihtaminen: klikkaa mustalla rastilla varustettuja vihreitä pisteitä, niin voit zoomata sisään; viivalla varustettua vihreää pistettä, niin voit zoomata ulos tai vihreitä nuolia, niin pääset viereisille kartoille.


METAR-TAF: